| time (UTC) | temp F | wind direction | speed MPH | gust MPH | rain 1hr in | rain 24hr in | rain mn in | humidity % | barometer mb |
| 20260502213630 | 75 | 271 | 3.0 | 10.0 | 0.00 | 0.45 | 0.20 | 40 | 1014.6 |
| 20260502212858 | 75 | 10 | 2.0 | 10.0 | 0.00 | 0.48 | 0.20 | 40 | 1014.7 |
| 20260502212358 | 75 | 5 | 2.0 | 7.0 | 0.00 | 0.52 | 0.20 | 41 | 1014.6 |
| 20260502211850 | 75 | 315 | 2.0 | 7.0 | 0.00 | 0.54 | 0.20 | 40 | 1014.7 |
| 20260502211340 | 75 | 59 | 3.0 | 7.0 | 0.00 | 0.57 | 0.20 | 39 | 1014.7 |
| 20260502210340 | 75 | 52 | 2.0 | 8.0 | 0.00 | 0.62 | 0.20 | 42 | 1014.7 |
| 20260502205839 | 75 | 335 | 3.0 | 11.0 | 0.00 | 0.64 | 0.20 | 41 | 1014.7 |
| 20260502205339 | 75 | 329 | 2.0 | 11.0 | 0.00 | 0.65 | 0.20 | 41 | 1014.8 |
| 20260502204838 | 75 | 49 | 2.0 | 4.0 | 0.00 | 0.66 | 0.20 | 42 | 1014.8 |
| 20260502204609 | 75 | 73 | 2.0 | 6.0 | 0.00 | 0.67 | 0.20 | 42 | 1014.8 |
| 20260502204108 | 75 | 62 | 2.0 | 7.0 | 0.00 | 0.68 | 0.20 | 45 | 1014.9 |
| 20260502203615 | 75 | 238 | 2.0 | 10.0 | 0.00 | 0.73 | 0.20 | 44 | 1015.0 |
| 20260502203338 | 75 | 288 | 2.0 | 7.0 | 0.00 | 0.70 | 0.20 | 41 | 1014.9 |
| 20260502202338 | 74 | 53 | 3.0 | 11.0 | 0.00 | 0.75 | 0.20 | 45 | 1015.1 |
| 20260502201836 | 74 | 340 | 3.0 | 11.0 | 0.00 | 0.80 | 0.20 | 44 | 1015.1 |
| 20260502201337 | 74 | 94 | 2.0 | 10.0 | 0.00 | 0.86 | 0.20 | 46 | 1015.3 |
| 20260502200831 | 74 | 236 | 2.0 | 9.0 | 0.00 | 0.88 | 0.20 | 45 | 1015.4 |
| 20260502200602 | 74 | 325 | 3.0 | 9.0 | 0.00 | 0.89 | 0.20 | 42 | 1015.3 |
| 20260502200100 | 74 | 350 | 2.0 | 6.0 | 0.00 | 0.92 | 0.20 | 44 | 1015.4 |
| 20260502195328 | 74 | 232 | 2.0 | 6.0 | 0.00 | 0.95 | 0.20 | 46 | 1015.5 |
| 20260502194827 | 74 | 283 | 2.0 | 12.0 | 0.00 | 1.06 | 0.20 | 46 | 1015.5 |
| 20260502194543 | 74 | 96 | 2.0 | 12.0 | 0.00 | 1.15 | 0.20 | 46 | 1015.5 |
| 20260502194033 | 74 | 88 | 2.0 | 6.0 | 0.00 | 1.23 | 0.20 | 47 | 1015.4 |
| 20260502193258 | 74 | 89 | 2.0 | 6.0 | 0.00 | 1.24 | 0.20 | 49 | 1015.5 |
| 20260502192758 | 74 | 24 | 2.0 | 9.0 | 0.00 | 1.26 | 0.20 | 47 | 1015.5 |
| 20260502192257 | 74 | 35 | 2.0 | 9.0 | 0.00 | 1.28 | 0.20 | 46 | 1015.5 |
| 20260502191757 | 74 | 221 | 2.0 | 5.0 | 0.00 | 1.33 | 0.20 | 47 | 1015.5 |
| 20260502191256 | 74 | 306 | 2.0 | 6.0 | 0.00 | 1.36 | 0.20 | 50 | 1015.6 |
| 20260502190757 | 74 | 225 | 2.0 | 6.0 | 0.00 | 1.39 | 0.20 | 49 | 1015.5 |
| 20260502190255 | 73 | 315 | 2.0 | 6.0 | 0.00 | 1.42 | 0.20 | 51 | 1015.5 |
| 20260502185749 | 73 | 57 | 2.0 | 4.0 | 0.00 | 1.46 | 0.20 | 52 | 1015.5 |
| 20260502185249 | 73 | 71 | 2.0 | 11.0 | 0.00 | 1.52 | 0.20 | 55 | 1015.6 |
| 20260502184749 | 73 | 285 | 3.0 | 11.0 | 0.00 | 1.55 | 0.20 | 52 | 1015.7 |
| 20260502184243 | 72 | 17 | 3.0 | 9.0 | 0.00 | 1.59 | 0.20 | 53 | 1015.7 |
| 20260502183742 | 73 | 278 | 2.0 | 5.0 | 0.00 | 1.63 | 0.20 | 55 | 1015.7 |
| 20260502183514 | 72 | 144 | 2.0 | 5.0 | 0.00 | 1.67 | 0.20 | 59 | 1015.7 |
| 20260502182742 | 72 | 115 | 2.0 | 11.0 | 0.00 | 1.69 | 0.20 | 54 | 1015.8 |
| 20260502181737 | 72 | 114 | 2.0 | 11.0 | 0.00 | 1.75 | 0.20 | 55 | 1015.8 |
| 20260502181236 | 71 | 50 | 3.0 | 11.0 | 0.00 | 1.78 | 0.20 | 58 | 1015.9 |
| 20260502180742 | 72 | 313 | 2.0 | 6.0 | 0.00 | 1.80 | 0.20 | 60 | 1015.9 |
| 20260502180737 | 72 | 290 | 2.0 | 7.0 | 0.00 | 1.79 | 0.20 | 55 | 1015.9 |
| 20260502170209 | 71 | 78 | 2.0 | 6.0 | 0.00 | 1.81 | 0.20 | 65 | 1016.5 |
| 20260502164205 | 71 | 286 | 1.0 | 4.0 | 0.00 | 1.81 | 0.20 | 65 | 1016.5 |
| 20260502163706 | 71 | 80 | 1.0 | 9.0 | 0.00 | 1.81 | 0.20 | 66 | 1016.5 |
| 20260502163200 | 70 | 76 | 2.0 | 9.0 | 0.00 | 1.81 | 0.20 | 65 | 1016.5 |
| 20260502162927 | 69 | 93 | 2.0 | 8.0 | 0.00 | 1.81 | 0.20 | 66 | 1016.6 |
| 20260502162155 | 69 | 80 | 2.0 | 8.0 | 0.00 | 1.81 | 0.20 | 67 | 1016.6 |
| 20260502161655 | 69 | 315 | 2.0 | 7.0 | 0.00 | 1.81 | 0.20 | 67 | 1016.6 |
| 20260502161157 | 69 | 59 | 2.0 | 7.0 | 0.00 | 1.81 | 0.20 | 67 | 1016.6 |
| 20260502160653 | 69 | 338 | 1.0 | 6.0 | 0.00 | 1.81 | 0.20 | 70 | 1016.6 |
| 20260502160153 | 68 | 295 | 2.0 | 10.0 | 0.00 | 1.81 | 0.20 | 69 | 1016.7 |
| 20260502152137 | 66 | 316 | 2.0 | 10.0 | 0.00 | 1.81 | 0.20 | 73 | 1016.3 |
| 20260502151636 | 66 | 69 | 2.0 | 10.0 | 0.00 | 1.81 | 0.20 | 73 | 1016.3 |
| 20260502151135 | 66 | 333 | 1.0 | 5.0 | 0.00 | 1.81 | 0.20 | 72 | 1016.2 |
| 20260502150633 | 66 | 60 | 2.0 | 5.0 | 0.00 | 1.81 | 0.20 | 73 | 1016.2 |
| 20260502150134 | 65 | 71 | 2.0 | 6.0 | 0.00 | 1.81 | 0.20 | 76 | 1016.2 |
| 20260502130513 | 56 | 355 | 1.0 | 4.0 | 0.00 | 1.81 | 0.20 | 94 | 1015.0 |
| 20260502123502 | 54 | 60 | 1.0 | 3.0 | 0.00 | 1.81 | 0.20 | 95 | 1014.7 |
| 20260502123003 | 54 | 74 | 1.0 | 3.0 | 0.00 | 1.81 | 0.20 | 95 | 1014.7 |
| 20260502122502 | 54 | 78 | 0.0 | 3.0 | 0.00 | 1.81 | 0.20 | 95 | 1014.5 |
| 20260502122003 | 54 | 5 | 0.0 | 2.0 | 0.00 | 1.81 | 0.20 | 95 | 1014.4 |
| 20260502121503 | 54 | 26 | 0.0 | 3.0 | 0.00 | 1.81 | 0.20 | 95 | 1014.4 |
| 20260502121004 | 54 | 26 | 0.0 | 3.0 | 0.00 | 1.81 | 0.20 | 95 | 1014.2 |
| 20260502120503 | 53 | 321 | 0.0 | 0.0 | 0.00 | 1.81 | 0.20 | 95 | 1014.1 |
| 20260502115451 | 53 | 321 | 0.0 | 0.0 | 0.00 | 1.81 | 0.20 | 95 | 1013.8 |
| 20260502115214 | 53 | 321 | 0.0 | 0.0 | 0.00 | 1.81 | 0.20 | 95 | 1013.6 |
| 20260502114435 | 53 | 321 | 0.0 | 0.0 | 0.00 | 1.81 | 0.20 | 95 | 1013.6 |
| 20260502113930 | 53 | 321 | 0.0 | 0.0 | 0.00 | 1.81 | 0.20 | 95 | 1013.6 |
| 20260502113429 | 53 | 321 | 0.0 | 0.0 | 0.00 | 1.81 | 0.20 | 95 | 1013.5 |
| 20260502112923 | 53 | 321 | 0.0 | 0.0 | 0.00 | 1.81 | 0.20 | 95 | 1013.6 |
| 20260502112413 | 53 | 321 | 0.0 | 0.0 | 0.00 | 1.81 | 0.20 | 95 | 1013.4 |
| 20260502111901 | 53 | 305 | 0.0 | 2.0 | 0.00 | 1.81 | 0.20 | 95 | 1013.4 |
| 20260502111349 | 53 | 305 | 0.0 | 2.0 | 0.00 | 1.81 | 0.20 | 95 | 1013.4 |
| 20260502110837 | 53 | 266 | 0.0 | 1.0 | 0.00 | 1.81 | 0.20 | 95 | 1013.4 |
| 20260502110337 | 53 | 266 | 0.0 | 1.0 | 0.00 | 1.81 | 0.20 | 95 | 1013.2 |
| 20260502105834 | 53 | 266 | 0.0 | 1.0 | 0.00 | 1.81 | 0.20 | 95 | 1013.2 |
| 20260502105327 | 53 | 266 | 0.0 | 2.0 | 0.00 | 1.81 | 0.20 | 95 | 1013.2 |
| 20260502104809 | 53 | 266 | 0.0 | 2.0 | 0.00 | 1.81 | 0.20 | 95 | 1013.2 |
| 20260502104307 | 53 | 266 | 0.0 | 2.0 | 0.00 | 1.81 | 0.20 | 95 | 1013.3 |
| 20260502103805 | 53 | 266 | 1.0 | 2.0 | 0.00 | 1.81 | 0.20 | 95 | 1013.2 |
| 20260502103305 | 53 | 265 | 0.0 | 2.0 | 0.00 | 1.81 | 0.20 | 95 | 1013.3 |
| 20260502102806 | 53 | 327 | 0.0 | 3.0 | 0.00 | 1.81 | 0.20 | 95 | 1013.3 |
| 20260502102306 | 53 | 344 | 0.0 | 3.0 | 0.00 | 1.81 | 0.20 | 95 | 1013.2 |
| 20260502101805 | 53 | 28 | 0.0 | 2.0 | 0.00 | 1.81 | 0.20 | 95 | 1013.1 |
| 20260502101253 | 53 | 5 | 1.0 | 2.0 | 0.00 | 1.81 | 0.20 | 95 | 1012.9 |
| 20260502100751 | 53 | 318 | 1.0 | 2.0 | 0.00 | 1.81 | 0.20 | 95 | 1013.0 |
| 20260502100508 | 53 | 134 | 0.0 | 2.0 | 0.00 | 1.81 | 0.20 | 95 | 1012.9 |
| 20260502091418 | 53 | 75 | 1.0 | 4.0 | 0.02 | 1.82 | 0.20 | 95 | 1012.4 |
| 20260502090646 | 53 | 11 | 1.0 | 4.0 | 0.02 | 1.82 | 0.20 | 95 | 1012.5 |
| 20260502090138 | 53 | 138 | 1.0 | 3.0 | 0.03 | 1.82 | 0.20 | 95 | 1012.4 |
| 20260502070514 | 53 | 315 | 1.0 | 4.0 | 0.08 | 1.79 | 0.15 | 95 | 1012.6 |
| 20260502070246 | 53 | 38 | 0.0 | 4.0 | 0.08 | 1.78 | 0.14 | 95 | 1012.6 |
| 20260502065514 | 53 | 202 | 1.0 | 3.0 | 0.08 | 1.77 | 0.14 | 95 | 1012.8 |
| 20260502065014 | 53 | 133 | 1.0 | 3.0 | 0.08 | 1.77 | 0.13 | 95 | 1012.8 |
| 20260502064747 | 53 | 50 | 1.0 | 3.0 | 0.07 | 1.76 | 0.12 | 95 | 1012.3 |
| 20260502064005 | 53 | 56 | 1.0 | 3.0 | 0.07 | 1.75 | 0.11 | 95 | 1012.4 |
| 20260502063500 | 53 | 291 | 1.0 | 3.0 | 0.07 | 1.75 | 0.11 | 95 | 1012.5 |
| 20260502062946 | 54 | 25 | 1.0 | 2.0 | 0.08 | 1.75 | 0.11 | 95 | 1012.4 |
| 20260502062445 | 54 | 50 | 1.0 | 3.0 | 0.09 | 1.75 | 0.11 | 95 | 1012.2 |
| 20260502061947 | 54 | 53 | 0.0 | 3.0 | 0.10 | 1.75 | 0.11 | 95 | 1012.2 |
| 20260502061940 | 54 | 9 | 0.0 | 0.0 | 0.09 | 1.74 | 0.10 | 95 | 1012.5 |
| 20260502060931 | 54 | 9 | 0.0 | 0.0 | 0.07 | 1.72 | 0.08 | 95 | 1013.2 |
| 20260502060431 | 54 | 9 | 0.0 | 1.0 | 0.06 | 1.71 | 0.07 | 95 | 1013.1 |
| 20260502055930 | 54 | 9 | 0.0 | 2.0 | 0.06 | 1.70 | 0.07 | 95 | 1013.2 |
| 20260502055433 | 54 | 9 | 0.0 | 2.0 | 0.05 | 1.69 | 0.05 | 95 | 1012.6 |
| 20260502054925 | 54 | 5 | 0.0 | 2.0 | 0.05 | 1.69 | 0.05 | 95 | 1012.6 |
| 20260502054427 | 54 | 339 | 0.0 | 1.0 | 0.06 | 1.69 | 0.05 | 95 | 1012.9 |
| 20260502054157 | 54 | 347 | 0.0 | 2.0 | 0.05 | 1.68 | 0.04 | 95 | 1012.8 |
| 20260502053414 | 54 | 347 | 0.0 | 2.0 | 0.05 | 1.68 | 0.04 | 95 | 1012.7 |
| 20260502052906 | 54 | 49 | 0.0 | 2.0 | 0.04 | 1.67 | 0.03 | 95 | 1012.7 |
| 20260502052347 | 54 | 49 | 0.0 | 2.0 | 0.03 | 1.66 | 0.02 | 95 | 1012.8 |
| 20260502052111 | 54 | 46 | 1.0 | 3.0 | 0.02 | 1.65 | 0.01 | 95 | 1012.7 |
| 20260502051339 | 54 | 298 | 1.0 | 3.0 | 0.02 | 1.65 | 0.01 | 95 | 1012.9 |
| 20260502050840 | 54 | 36 | 1.0 | 4.0 | 0.02 | 1.65 | 0.01 | 95 | 1012.8 |
| 20260502050338 | 54 | 0 | 1.0 | 4.0 | 0.01 | 1.64 | 0.00 | 95 | 1012.6 |
| 20260502045837 | 54 | 94 | 1.0 | 3.0 | 0.01 | 1.64 | 1.64 | 95 | 1012.5 |
| 20260502045337 | 54 | 51 | 1.0 | 4.0 | 0.01 | 1.64 | 1.64 | 95 | 1012.4 |
| 20260502045108 | 54 | 63 | 1.0 | 4.0 | 0.01 | 1.64 | 1.64 | 95 | 1012.6 |
| 20260502044608 | 54 | 9 | 1.0 | 4.0 | 0.00 | 1.63 | 1.63 | 95 | 1012.5 |
| 20260502043837 | 54 | 323 | 1.0 | 4.0 | 0.00 | 1.63 | 1.63 | 95 | 1012.4 |
| 20260502043338 | 54 | 69 | 1.0 | 3.0 | 0.00 | 1.63 | 1.63 | 95 | 1012.0 |
| 20260502042836 | 54 | 323 | 1.0 | 2.0 | 0.00 | 1.63 | 1.63 | 95 | 1012.0 |
| 20260502042337 | 54 | 57 | 1.0 | 2.0 | 0.00 | 1.63 | 1.63 | 95 | 1012.0 |
| 20260502041836 | 54 | 59 | 1.0 | 3.0 | 0.00 | 1.63 | 1.63 | 95 | 1011.9 |
| 20260502041338 | 54 | 59 | 1.0 | 3.0 | 0.00 | 1.63 | 1.63 | 95 | 1011.9 |
| 20260502040833 | 54 | 60 | 0.0 | 2.0 | 0.00 | 1.63 | 1.63 | 95 | 1012.0 |
| 20260502040333 | 54 | 52 | 1.0 | 2.0 | 0.00 | 1.63 | 1.63 | 95 | 1012.0 |
| 20260502035833 | 54 | 51 | 1.0 | 3.0 | 0.00 | 1.63 | 1.63 | 95 | 1012.1 |
| 20260502035327 | 54 | 311 | 1.0 | 4.0 | 0.00 | 1.63 | 1.63 | 95 | 1012.0 |
| 20260502034827 | 54 | 63 | 1.0 | 4.0 | 0.00 | 1.63 | 1.63 | 95 | 1011.9 |
| 20260502034324 | 54 | 61 | 1.0 | 6.0 | 0.00 | 1.63 | 1.63 | 95 | 1011.9 |
| 20260502033825 | 54 | 142 | 1.0 | 6.0 | 0.00 | 1.63 | 1.63 | 95 | 1012.1 |
| 20260502033321 | 55 | 16 | 1.0 | 3.0 | 0.00 | 1.63 | 1.63 | 95 | 1012.0 |
| 20260502032820 | 55 | 88 | 1.0 | 3.0 | 0.00 | 1.63 | 1.63 | 95 | 1012.1 |
| 20260502032318 | 55 | 82 | 1.0 | 3.0 | 0.00 | 1.63 | 1.63 | 95 | 1012.0 |
| 20260502031807 | 55 | 93 | 1.0 | 3.0 | 0.00 | 1.63 | 1.63 | 95 | 1012.0 |
| 20260502031302 | 55 | 234 | 1.0 | 6.0 | 0.00 | 1.63 | 1.63 | 95 | 1011.6 |
| 20260502031032 | 55 | 173 | 1.0 | 6.0 | 0.00 | 1.63 | 1.63 | 95 | 1011.7 |
| 20260502030524 | 55 | 19 | 1.0 | 2.0 | 0.00 | 1.63 | 1.63 | 95 | 1011.8 |
| 20260502030023 | 55 | 355 | 1.0 | 5.0 | 0.00 | 1.63 | 1.63 | 95 | 1011.8 |
| 20260502025250 | 55 | 68 | 1.0 | 5.0 | 0.00 | 1.63 | 1.63 | 95 | 1011.8 |
| 20260502024740 | 55 | 48 | 1.0 | 4.0 | 0.00 | 1.63 | 1.63 | 95 | 1011.8 |
| 20260502024240 | 55 | 36 | 1.0 | 4.0 | 0.00 | 1.63 | 1.63 | 95 | 1011.8 |
| 20260502023738 | 55 | 67 | 1.0 | 3.0 | 0.00 | 1.63 | 1.63 | 96 | 1011.8 |
| 20260502023238 | 55 | 42 | 1.0 | 3.0 | 0.00 | 1.63 | 1.63 | 96 | 1011.8 |
| 20260502023003 | 55 | 278 | 1.0 | 3.0 | 0.00 | 1.63 | 1.63 | 96 | 1011.8 |
| 20260502022234 | 55 | 57 | 1.0 | 3.0 | 0.00 | 1.63 | 1.63 | 96 | 1011.7 |
| 20260502021728 | 55 | 81 | 1.0 | 3.0 | 0.00 | 1.63 | 1.63 | 96 | 1011.6 |
| 20260502021225 | 55 | 5 | 1.0 | 3.0 | 0.00 | 1.63 | 1.63 | 96 | 1011.3 |
| 20260502020727 | 55 | 48 | 1.0 | 3.0 | 0.00 | 1.63 | 1.63 | 96 | 1011.4 |
| 20260502020214 | 55 | 42 | 1.0 | 4.0 | 0.00 | 1.63 | 1.63 | 96 | 1011.2 |
| 20260502015714 | 55 | 61 | 1.0 | 4.0 | 0.00 | 1.63 | 1.63 | 96 | 1010.9 |
| 20260502015214 | 55 | 53 | 0.0 | 2.0 | 0.00 | 1.63 | 1.63 | 96 | 1010.8 |
| 20260502014708 | 55 | 72 | 1.0 | 2.0 | 0.00 | 1.63 | 1.63 | 96 | 1010.8 |
| 20260502014413 | 55 | 73 | 1.0 | 3.0 | 0.00 | 1.63 | 1.63 | 96 | 1010.7 |
| 20260502013639 | 56 | 45 | 1.0 | 3.0 | 0.00 | 1.63 | 1.63 | 96 | 1010.8 |
| 20260502013141 | 56 | 114 | 1.0 | 3.0 | 0.00 | 1.63 | 1.63 | 96 | 1010.5 |
| 20260502012631 | 56 | 199 | 1.0 | 3.0 | 0.01 | 1.63 | 1.63 | 96 | 1010.5 |
| 20260502012130 | 56 | 53 | 1.0 | 3.0 | 0.02 | 1.63 | 1.63 | 96 | 1010.3 |
| 20260502011627 | 56 | 126 | 1.0 | 3.0 | 0.02 | 1.63 | 1.63 | 96 | 1010.2 |
| 20260502011124 | 56 | 63 | 1.0 | 8.0 | 0.02 | 1.63 | 1.63 | 96 | 1009.5 |
| 20260502010844 | 56 | 38 | 1.0 | 7.0 | 0.03 | 1.63 | 1.63 | 96 | 1009.4 |
| 20260502010111 | 55 | 71 | 1.0 | 5.0 | 0.04 | 1.63 | 1.63 | 96 | 1009.2 |
| 20260502005612 | 56 | 42 | 1.0 | 5.0 | 0.05 | 1.63 | 1.63 | 96 | 1008.8 |
| 20260502005106 | 56 | 101 | 1.0 | 5.0 | 0.09 | 1.63 | 1.63 | 96 | 1008.6 |
| 20260502004602 | 55 | 100 | 2.0 | 6.0 | 0.12 | 1.63 | 1.63 | 96 | 1008.8 |
| 20260502004055 | 56 | 11 | 2.0 | 6.0 | 0.13 | 1.63 | 1.63 | 96 | 1009.1 |
| 20260502003825 | 56 | 104 | 2.0 | 4.0 | 0.14 | 1.63 | 1.63 | 96 | 1009.2 |
| 20260502003053 | 56 | 95 | 2.0 | 4.0 | 0.15 | 1.63 | 1.63 | 95 | 1009.4 |
| 20260502002551 | 56 | 60 | 1.0 | 4.0 | 0.13 | 1.61 | 1.61 | 95 | 1009.6 |
| 20260502002053 | 56 | 72 | 0.0 | 3.0 | 0.14 | 1.61 | 1.61 | 95 | 1010.4 |
| 20260502001554 | 56 | 36 | 0.0 | 0.0 | 0.14 | 1.61 | 1.61 | 95 | 1010.3 |
| 20260502001039 | 56 | 39 | 0.0 | 0.0 | 0.15 | 1.61 | 1.61 | 95 | 1009.7 |
| 20260502000540 | 56 | 36 | 0.0 | 1.0 | 0.14 | 1.60 | 1.60 | 95 | 1010.6 |
| 20260502000040 | 56 | 36 | 0.0 | 2.0 | 0.13 | 1.59 | 1.59 | 95 | 1010.6 |
| 20260501235810 | 56 | 123 | 0.0 | 2.0 | 0.11 | 1.57 | 1.58 | 95 | 1010.6 |
| 20260501235311 | 56 | 90 | 0.0 | 1.0 | 0.09 | 1.54 | 1.54 | 95 | 1011.8 |
| 20260501234540 | 56 | 90 | 0.0 | 2.0 | 0.06 | 1.51 | 1.52 | 95 | 1011.7 |
| 20260501234037 | 55 | 44 | 1.0 | 3.0 | 0.05 | 1.49 | 1.49 | 95 | 1010.5 |
| 20260501234033 | 56 | 90 | 0.0 | 3.0 | 0.06 | 1.50 | 1.50 | 95 | 1010.6 |
| 20260501233029 | 55 | 132 | 1.0 | 3.0 | 0.04 | 1.48 | 1.48 | 95 | 1010.2 |
| 20260501232529 | 55 | 96 | 1.0 | 3.0 | 0.05 | 1.49 | 1.48 | 95 | 1010.0 |
| 20260501232028 | 55 | 65 | 1.0 | 3.0 | 0.05 | 1.50 | 1.47 | 95 | 1010.1 |
| 20260501231520 | 56 | 123 | 1.0 | 4.0 | 0.05 | 1.51 | 1.47 | 95 | 1010.8 |
| 20260501231019 | 56 | 157 | 1.0 | 4.0 | 0.04 | 1.51 | 1.46 | 95 | 1010.7 |
| 20260501230520 | 56 | 49 | 1.0 | 5.0 | 0.04 | 1.52 | 1.46 | 95 | 1010.6 |
| 20260501230247 | 55 | 67 | 1.0 | 5.0 | 0.04 | 1.53 | 1.46 | 95 | 1010.6 |
| 20260501225747 | 56 | 90 | 2.0 | 5.0 | 0.04 | 1.52 | 1.45 | 95 | 1010.4 |
| 20260501225009 | 56 | 103 | 2.0 | 5.0 | 0.04 | 1.52 | 1.45 | 95 | 1010.4 |
| 20260501224511 | 56 | 52 | 1.0 | 3.0 | 0.04 | 1.52 | 1.45 | 95 | 1010.7 |
| 20260501224005 | 56 | 190 | 1.0 | 6.0 | 0.04 | 1.51 | 1.44 | 95 | 1010.3 |
| 20260501223504 | 56 | 59 | 1.0 | 6.0 | 0.05 | 1.51 | 1.44 | 95 | 1010.4 |
| 20260501223002 | 56 | 121 | 1.0 | 3.0 | 0.06 | 1.50 | 1.44 | 95 | 1010.5 |
| 20260501222504 | 56 | 287 | 1.0 | 3.0 | 0.10 | 1.50 | 1.43 | 95 | 1010.7 |
| 20260501222005 | 56 | 70 | 1.0 | 4.0 | 0.12 | 1.49 | 1.42 | 95 | 1010.4 |
| 20260501221500 | 56 | 97 | 1.0 | 4.0 | 0.14 | 1.49 | 1.42 | 95 | 1010.7 |
| 20260501220948 | 56 | 63 | 1.0 | 5.0 | 0.17 | 1.49 | 1.42 | 95 | 1010.5 |
| 20260501220445 | 56 | 159 | 2.0 | 5.0 | 0.20 | 1.50 | 1.42 | 95 | 1010.1 |
| 20260501220216 | 56 | 89 | 2.0 | 6.0 | 0.22 | 1.50 | 1.42 | 95 | 1010.0 |
| 20260501215439 | 57 | 73 | 2.0 | 6.0 | 0.21 | 1.49 | 1.41 | 95 | 1010.0 |
| 20260501214936 | 57 | 147 | 2.0 | 5.0 | 0.22 | 1.49 | 1.41 | 95 | 1010.1 |
| 20260501214437 | 57 | 64 | 1.0 | 5.0 | 0.23 | 1.51 | 1.41 | 95 | 1010.0 |
| 20260501213934 | 57 | 97 | 1.0 | 4.0 | 0.24 | 1.55 | 1.40 | 95 | 1010.4 |